Year,Month,Day,Hour,Minute,Value (Times are PST for temperature in C)
2013,04,25,00,00,8.20
2013,04,25,00,01,8.20
2013,04,25,00,02,8.20
2013,04,25,00,03,8.30
2013,04,25,00,04,8.30
2013,04,25,00,05,8.30
2013,04,25,00,06,8.30
2013,04,25,00,07,8.30
2013,04,25,00,08,8.30
2013,04,25,00,09,8.30
2013,04,25,00,10,8.30
2013,04,25,00,11,8.40
2013,04,25,00,12,8.40
2013,04,25,00,13,8.40
2013,04,25,00,14,8.40
2013,04,25,00,15,8.50
2013,04,25,00,16,8.50
2013,04,25,00,17,8.50
2013,04,25,00,18,8.50
2013,04,25,00,19,8.60
2013,04,25,00,20,8.60
2013,04,25,00,21,8.60
2013,04,25,00,22,8.60
2013,04,25,00,23,8.60
2013,04,25,00,24,8.50
2013,04,25,00,25,8.50
2013,04,25,00,26,8.50
2013,04,25,00,27,8.50
2013,04,25,00,28,8.40
2013,04,25,00,29,8.40
2013,04,25,00,30,8.40
2013,04,25,00,31,8.40
2013,04,25,00,32,8.40
2013,04,25,00,33,8.40
2013,04,25,00,34,8.40
2013,04,25,00,35,8.40
2013,04,25,00,36,8.40
2013,04,25,00,37,8.40
2013,04,25,00,38,8.40
2013,04,25,00,39,8.40
2013,04,25,00,40,8.40
2013,04,25,00,41,8.40
2013,04,25,00,42,8.40
2013,04,25,00,43,8.40
2013,04,25,00,44,8.40
2013,04,25,00,45,8.30
2013,04,25,00,46,8.30
2013,04,25,00,47,8.30
2013,04,25,00,48,8.30
2013,04,25,00,49,8.20
2013,04,25,00,50,8.20
2013,04,25,00,51,8.20
2013,04,25,00,52,8.20
2013,04,25,00,53,8.20
2013,04,25,00,54,8.20
2013,04,25,00,55,8.20
2013,04,25,00,56,8.20
2013,04,25,00,57,8.10
2013,04,25,00,58,8.10
2013,04,25,00,59,8.10
2013,04,25,01,00,8.10
2013,04,25,01,01,8.10
2013,04,25,01,02,8.10
2013,04,25,01,03,8.10
2013,04,25,01,04,8.00
2013,04,25,01,05,8.00
2013,04,25,01,06,8.00
2013,04,25,01,07,8.00
2013,04,25,01,08,7.90
2013,04,25,01,09,7.90
2013,04,25,01,10,7.90
2013,04,25,01,11,7.90
2013,04,25,01,12,7.90
2013,04,25,01,13,7.90
2013,04,25,01,14,7.90
2013,04,25,01,15,7.90
2013,04,25,01,16,7.90
2013,04,25,01,17,7.90
2013,04,25,01,18,8.00
2013,04,25,01,19,8.00
2013,04,25,01,20,8.00
2013,04,25,01,21,8.00
2013,04,25,01,22,8.00
2013,04,25,01,23,8.00
2013,04,25,01,24,8.00
2013,04,25,01,25,8.00
2013,04,25,01,26,8.00
2013,04,25,01,27,8.00
2013,04,25,01,28,8.00
2013,04,25,01,29,8.00
2013,04,25,01,30,7.90
2013,04,25,01,31,7.90
2013,04,25,01,32,7.90
2013,04,25,01,33,7.90
2013,04,25,01,34,7.90
2013,04,25,01,35,7.80
2013,04,25,01,36,7.80
2013,04,25,01,37,7.80
2013,04,25,01,38,7.80
2013,04,25,01,39,7.70
2013,04,25,01,40,7.70
2013,04,25,01,41,7.70
2013,04,25,01,42,7.70
2013,04,25,01,43,7.70
2013,04,25,01,44,7.60
2013,04,25,01,45,7.60
2013,04,25,01,46,7.60
2013,04,25,01,47,7.60
2013,04,25,01,48,7.60
2013,04,25,01,49,7.50
2013,04,25,01,50,7.50
2013,04,25,01,51,7.50
2013,04,25,01,52,7.40
2013,04,25,01,53,7.40
2013,04,25,01,54,7.40
2013,04,25,01,55,7.40
2013,04,25,01,56,7.30
2013,04,25,01,57,7.30
2013,04,25,01,58,7.30
2013,04,25,01,59,7.30
2013,04,25,02,00,7.20
2013,04,25,02,01,7.20
2013,04,25,02,02,7.20
2013,04,25,02,03,7.20
2013,04,25,02,04,7.20
2013,04,25,02,05,7.10
2013,04,25,02,06,7.10
2013,04,25,02,07,7.10
2013,04,25,02,08,7.00
2013,04,25,02,09,7.00
2013,04,25,02,10,7.00
2013,04,25,02,11,6.90
2013,04,25,02,12,6.90
2013,04,25,02,13,6.90
2013,04,25,02,14,6.90
2013,04,25,02,15,6.90
2013,04,25,02,16,6.90
2013,04,25,02,17,6.90
2013,04,25,02,18,6.80
2013,04,25,02,19,6.80
2013,04,25,02,20,6.80
2013,04,25,02,21,6.80
2013,04,25,02,22,6.80
2013,04,25,02,23,6.80
2013,04,25,02,24,6.80
2013,04,25,02,25,6.80
2013,04,25,02,26,6.80
2013,04,25,02,27,6.90
2013,04,25,02,28,6.90
2013,04,25,02,29,6.90
2013,04,25,02,30,6.90
2013,04,25,02,31,6.90
2013,04,25,02,32,6.90
2013,04,25,02,33,6.90
2013,04,25,02,34,6.90
2013,04,25,02,35,6.90
2013,04,25,02,36,6.90
2013,04,25,02,37,6.90
2013,04,25,02,38,6.90
2013,04,25,02,39,6.90
2013,04,25,02,40,6.90
2013,04,25,02,41,6.90
2013,04,25,02,42,6.90
2013,04,25,02,43,6.90
2013,04,25,02,44,6.90
2013,04,25,02,45,6.90
2013,04,25,02,46,6.90
2013,04,25,02,47,6.90
2013,04,25,02,48,6.80
2013,04,25,02,49,6.80
2013,04,25,02,50,6.80
2013,04,25,02,51,6.80
2013,04,25,02,52,6.80
2013,04,25,02,53,6.80
2013,04,25,02,54,6.80
2013,04,25,02,55,6.70
2013,04,25,02,56,6.70
2013,04,25,02,57,6.70
2013,04,25,02,58,6.70
2013,04,25,02,59,6.70
2013,04,25,03,00,6.70
2013,04,25,03,01,6.60
2013,04,25,03,02,6.60
2013,04,25,03,03,6.60
2013,04,25,03,04,6.60
2013,04,25,03,05,6.60
2013,04,25,03,06,6.60
2013,04,25,03,07,6.60
2013,04,25,03,08,6.60
2013,04,25,03,09,6.60
2013,04,25,03,10,6.60
2013,04,25,03,11,6.60
2013,04,25,03,12,6.60
2013,04,25,03,13,6.60
2013,04,25,03,14,6.60
2013,04,25,03,15,6.60
2013,04,25,03,16,6.60
2013,04,25,03,17,6.60
2013,04,25,03,18,6.60
2013,04,25,03,19,6.60
2013,04,25,03,20,6.60
2013,04,25,03,21,6.60
2013,04,25,03,22,6.60
2013,04,25,03,23,6.60
2013,04,25,03,24,6.60
2013,04,25,03,25,6.60
2013,04,25,03,26,6.60
2013,04,25,03,27,6.60
2013,04,25,03,28,6.60
2013,04,25,03,29,6.60
2013,04,25,03,30,6.60
2013,04,25,03,31,6.60
2013,04,25,03,32,6.60
2013,04,25,03,33,6.60
2013,04,25,03,34,6.60
2013,04,25,03,35,6.50
2013,04,25,03,36,6.50
2013,04,25,03,37,6.50
2013,04,25,03,38,6.50
2013,04,25,03,39,6.50
2013,04,25,03,40,6.50
2013,04,25,03,41,6.40
2013,04,25,03,42,6.40
2013,04,25,03,43,6.40
2013,04,25,03,44,6.40
2013,04,25,03,45,6.40
2013,04,25,03,49,6.40
2013,04,25,03,50,6.40
2013,04,25,03,51,6.40
2013,04,25,03,52,6.40
2013,04,25,03,53,6.40
2013,04,25,03,54,6.40
2013,04,25,03,55,6.40
2013,04,25,03,56,6.40
2013,04,25,03,57,6.40
2013,04,25,03,58,6.30
2013,04,25,03,59,6.30
2013,04,25,04,00,6.30
2013,04,25,04,01,6.30
2013,04,25,04,02,6.30
2013,04,25,04,03,6.30
2013,04,25,04,04,6.30
2013,04,25,04,05,6.30
2013,04,25,04,06,6.30
2013,04,25,04,07,6.30
2013,04,25,04,08,6.30
2013,04,25,04,09,6.30
2013,04,25,04,10,6.20
2013,04,25,04,11,6.20
2013,04,25,04,12,6.20
2013,04,25,04,13,6.20
2013,04,25,04,14,6.20
2013,04,25,04,15,6.20
2013,04,25,04,16,6.20
2013,04,25,04,17,6.20
2013,04,25,04,18,6.10
2013,04,25,04,19,6.10
2013,04,25,04,20,6.00
2013,04,25,04,21,6.00
2013,04,25,04,22,6.00
2013,04,25,04,23,5.90
2013,04,25,04,24,5.90
2013,04,25,04,25,5.90
2013,04,25,04,26,5.90
2013,04,25,04,27,5.80
2013,04,25,04,28,5.80
2013,04,25,04,29,5.80
2013,04,25,04,30,5.80
2013,04,25,04,31,5.80
2013,04,25,04,32,5.80
2013,04,25,04,33,5.80
2013,04,25,04,34,5.80
2013,04,25,04,35,5.80
2013,04,25,04,36,5.80
2013,04,25,04,37,5.70
2013,04,25,04,38,5.70
2013,04,25,04,39,5.70
2013,04,25,04,40,5.70
2013,04,25,04,41,5.70
2013,04,25,04,42,5.70
2013,04,25,04,43,5.70
2013,04,25,04,44,5.70
2013,04,25,04,45,5.70
2013,04,25,04,46,5.70
2013,04,25,04,47,5.70
2013,04,25,04,48,5.70
2013,04,25,04,49,5.70
2013,04,25,04,50,5.70
2013,04,25,04,51,5.70
2013,04,25,04,52,5.70
2013,04,25,04,53,5.70
2013,04,25,04,54,5.70
2013,04,25,04,55,5.80
2013,04,25,04,56,5.80
2013,04,25,04,57,5.80
2013,04,25,04,58,5.80
2013,04,25,04,59,5.80
2013,04,25,05,00,5.70
2013,04,25,05,01,5.70
2013,04,25,05,02,5.70
2013,04,25,05,03,5.70
2013,04,25,05,04,5.70
2013,04,25,05,05,5.70
2013,04,25,05,06,5.70
2013,04,25,05,07,5.60
2013,04,25,05,08,5.60
2013,04,25,05,09,5.60
2013,04,25,05,10,5.60
2013,04,25,05,11,5.50
2013,04,25,05,12,5.50
2013,04,25,05,13,5.50
2013,04,25,05,14,5.40
2013,04,25,05,15,5.40
2013,04,25,05,16,5.40
2013,04,25,05,17,5.40
2013,04,25,05,18,5.40
2013,04,25,05,19,5.30
2013,04,25,05,20,5.30
2013,04,25,05,21,5.30
2013,04,25,05,22,5.30
2013,04,25,05,23,5.30
2013,04,25,05,24,5.30
2013,04,25,05,25,5.30
2013,04,25,05,26,5.30
2013,04,25,05,27,5.30
2013,04,25,05,28,5.30
2013,04,25,05,29,5.30
2013,04,25,05,30,5.30
2013,04,25,05,31,5.30
2013,04,25,05,32,5.30
2013,04,25,05,33,5.30
2013,04,25,05,34,5.30
2013,04,25,05,35,5.30
2013,04,25,05,36,5.30
2013,04,25,05,37,5.30
2013,04,25,05,38,5.30
2013,04,25,05,39,5.30
2013,04,25,05,40,5.30
2013,04,25,05,41,5.30
2013,04,25,05,42,5.30
2013,04,25,05,43,5.30
2013,04,25,05,44,5.30
2013,04,25,05,45,5.30
2013,04,25,05,46,5.30
2013,04,25,05,47,5.30
2013,04,25,05,48,5.30
2013,04,25,05,49,5.30
2013,04,25,05,50,5.30
2013,04,25,05,51,5.30
2013,04,25,05,52,5.30
2013,04,25,05,53,5.30
2013,04,25,05,54,5.30
2013,04,25,05,55,5.30
2013,04,25,05,56,5.30
2013,04,25,05,57,5.20
2013,04,25,05,58,5.20
2013,04,25,05,59,5.20
2013,04,25,06,00,5.20
2013,04,25,06,01,5.10
2013,04,25,06,02,5.10
2013,04,25,06,03,5.10
2013,04,25,06,04,5.10
2013,04,25,06,05,5.10
2013,04,25,06,06,5.10
2013,04,25,06,07,5.00
2013,04,25,06,08,5.00
2013,04,25,06,09,5.00
2013,04,25,06,10,5.00
2013,04,25,06,11,5.10
2013,04,25,06,12,5.10
2013,04,25,06,13,5.10
2013,04,25,06,14,5.10
2013,04,25,06,15,5.10
2013,04,25,06,16,5.10
2013,04,25,06,17,5.10
2013,04,25,06,18,5.20
2013,04,25,06,19,5.20
2013,04,25,06,20,5.20
2013,04,25,06,21,5.20
2013,04,25,06,22,5.20
2013,04,25,06,23,5.30
2013,04,25,06,24,5.30
2013,04,25,06,25,5.30
2013,04,25,06,26,5.30
2013,04,25,06,27,5.30
2013,04,25,06,28,5.30
2013,04,25,06,29,5.30
2013,04,25,06,30,5.30
2013,04,25,06,31,5.30
2013,04,25,06,32,5.30
2013,04,25,06,33,5.40
2013,04,25,06,34,5.40
2013,04,25,06,35,5.40
2013,04,25,06,36,5.40
2013,04,25,06,37,5.40
2013,04,25,06,38,5.40
2013,04,25,06,39,5.50
2013,04,25,06,40,5.50
2013,04,25,06,41,5.50
2013,04,25,06,42,5.60
2013,04,25,06,43,5.60
2013,04,25,06,44,5.60
2013,04,25,06,45,5.70
2013,04,25,06,46,5.70
2013,04,25,06,47,5.70
2013,04,25,06,48,5.70
2013,04,25,06,49,5.70
2013,04,25,06,50,5.80
2013,04,25,06,51,5.80
2013,04,25,06,52,5.80
2013,04,25,06,53,5.80
2013,04,25,06,54,5.80
2013,04,25,06,55,5.80
2013,04,25,06,56,5.80
2013,04,25,06,57,5.80
2013,04,25,06,58,5.90
2013,04,25,06,59,5.90
2013,04,25,07,00,5.90
2013,04,25,07,01,6.00
2013,04,25,07,02,6.10
2013,04,25,07,03,6.10
2013,04,25,07,04,6.10
2013,04,25,07,05,6.20
2013,04,25,07,06,6.20
2013,04,25,07,07,6.20
2013,04,25,07,08,6.20
2013,04,25,07,09,6.30
2013,04,25,07,10,6.30
2013,04,25,07,11,6.30
2013,04,25,07,12,6.40
2013,04,25,07,13,6.40
2013,04,25,07,14,6.40
2013,04,25,07,15,6.50
2013,04,25,07,16,6.50
2013,04,25,07,17,6.60
2013,04,25,07,18,6.60
2013,04,25,07,19,6.70
2013,04,25,07,20,6.70
2013,04,25,07,21,6.80
2013,04,25,07,22,6.80
2013,04,25,07,23,6.80
2013,04,25,07,24,6.90
2013,04,25,07,25,6.90
2013,04,25,07,26,6.90
2013,04,25,07,27,7.00
2013,04,25,07,28,7.00
2013,04,25,07,29,7.10
2013,04,25,07,30,7.10
2013,04,25,07,31,7.10
2013,04,25,07,32,7.10
2013,04,25,07,33,7.20
2013,04,25,07,34,7.20
2013,04,25,07,35,7.20
2013,04,25,07,36,7.20
2013,04,25,07,37,7.20
2013,04,25,07,38,7.30
2013,04,25,07,39,7.30
2013,04,25,07,40,7.40
2013,04,25,07,41,7.50
2013,04,25,07,42,7.60
2013,04,25,07,43,7.60
2013,04,25,07,44,7.70
2013,04,25,07,45,7.90
2013,04,25,07,46,8.00
2013,04,25,07,47,8.10
2013,04,25,07,48,8.20
2013,04,25,07,49,8.20
2013,04,25,07,50,8.30
2013,04,25,07,51,8.40
2013,04,25,07,52,8.50
2013,04,25,07,53,8.60
2013,04,25,07,54,8.70
2013,04,25,07,55,8.80
2013,04,25,07,56,8.90
2013,04,25,07,57,9.00
2013,04,25,07,58,9.10
2013,04,25,07,59,9.20
2013,04,25,08,00,9.30
2013,04,25,08,01,9.30
2013,04,25,08,02,9.40
2013,04,25,08,03,9.40
2013,04,25,08,04,9.40
2013,04,25,08,05,9.50
2013,04,25,08,06,9.50
2013,04,25,08,07,9.60
2013,04,25,08,08,9.60
2013,04,25,08,09,9.70
2013,04,25,08,10,9.80
2013,04,25,08,11,9.80
2013,04,25,08,12,9.80
2013,04,25,08,13,9.80
2013,04,25,08,14,9.80
2013,04,25,08,15,9.90
2013,04,25,08,16,9.90
2013,04,25,08,17,9.90
2013,04,25,08,18,10.00
2013,04,25,08,19,10.00
2013,04,25,08,20,10.10
2013,04,25,08,21,10.10
2013,04,25,08,22,10.20
2013,04,25,08,23,10.30
2013,04,25,08,24,10.30
2013,04,25,08,25,10.40
2013,04,25,08,26,10.50
2013,04,25,08,27,10.50
2013,04,25,08,28,10.60
2013,04,25,08,29,10.70
2013,04,25,08,30,10.80
2013,04,25,08,31,10.90
2013,04,25,08,32,11.00
2013,04,25,08,33,11.10
2013,04,25,08,34,11.20
2013,04,25,08,35,11.30
2013,04,25,08,36,11.40
2013,04,25,08,37,11.50
2013,04,25,08,38,11.60
2013,04,25,08,39,11.60
2013,04,25,08,40,11.60
2013,04,25,08,41,11.60
2013,04,25,08,42,11.60
2013,04,25,08,43,11.60
2013,04,25,08,44,11.70
2013,04,25,08,45,11.70
2013,04,25,08,46,11.70
2013,04,25,08,47,11.80
2013,04,25,08,48,11.80
2013,04,25,08,49,11.90
2013,04,25,08,50,12.00
2013,04,25,08,51,12.10
2013,04,25,08,52,12.20
2013,04,25,08,53,12.20
2013,04,25,08,54,12.30
2013,04,25,08,55,12.30
2013,04,25,08,56,12.30
2013,04,25,08,57,12.20
2013,04,25,08,58,12.30
2013,04,25,08,59,12.30
2013,04,25,09,00,12.30
2013,04,25,09,01,12.30
2013,04,25,09,02,12.30
2013,04,25,09,03,12.30
2013,04,25,09,04,12.40
2013,04,25,09,05,12.40
2013,04,25,09,06,12.40
2013,04,25,09,07,12.40
2013,04,25,09,08,12.40
2013,04,25,09,09,12.40
2013,04,25,09,10,12.40
2013,04,25,09,11,12.40
2013,04,25,09,12,12.40
2013,04,25,09,13,12.40
2013,04,25,09,14,12.40
2013,04,25,09,15,12.50
2013,04,25,09,16,12.50
2013,04,25,09,17,12.40
2013,04,25,09,18,12.40
2013,04,25,09,19,12.30
2013,04,25,09,20,12.30
2013,04,25,09,21,12.30
2013,04,25,09,22,12.30
2013,04,25,09,23,12.30
2013,04,25,09,24,12.20
2013,04,25,09,25,12.20
2013,04,25,09,26,12.20
2013,04,25,09,27,12.20
2013,04,25,09,28,12.20
2013,04,25,09,29,12.10
2013,04,25,09,30,12.10
2013,04,25,09,31,12.00
2013,04,25,09,32,11.90
2013,04,25,09,33,11.80
2013,04,25,09,34,11.80
2013,04,25,09,35,11.80
2013,04,25,09,36,11.80
2013,04,25,09,37,11.80
2013,04,25,09,38,11.70
2013,04,25,09,39,11.70
2013,04,25,09,40,11.80
2013,04,25,09,41,11.80
2013,04,25,09,42,11.90
2013,04,25,09,43,12.00
2013,04,25,09,44,12.10
2013,04,25,09,45,12.20
2013,04,25,09,46,12.30
2013,04,25,09,47,12.40
2013,04,25,09,48,12.60
2013,04,25,09,49,12.70
2013,04,25,09,50,12.80
2013,04,25,09,51,13.00
2013,04,25,09,52,13.20
2013,04,25,09,53,13.30
2013,04,25,09,54,13.40
2013,04,25,09,55,13.50
2013,04,25,09,56,13.60
2013,04,25,09,57,13.70
2013,04,25,09,58,13.80
2013,04,25,09,59,13.90
2013,04,25,10,00,13.90
2013,04,25,10,01,14.00
2013,04,25,10,02,14.10
2013,04,25,10,03,14.20
2013,04,25,10,04,14.30
2013,04,25,10,05,14.30
2013,04,25,10,06,14.30
2013,04,25,10,07,14.40
2013,04,25,10,08,14.40
2013,04,25,10,09,14.40
2013,04,25,10,10,14.40
2013,04,25,10,11,14.40
2013,04,25,10,12,14.40
2013,04,25,10,13,14.40
2013,04,25,10,14,14.40
2013,04,25,10,15,14.50
2013,04,25,10,16,14.50
2013,04,25,10,17,14.50
2013,04,25,10,18,14.50
2013,04,25,10,19,14.60
2013,04,25,10,20,14.60
2013,04,25,10,21,14.60
2013,04,25,10,22,14.60
2013,04,25,10,23,14.60
2013,04,25,10,24,14.60
2013,04,25,10,25,14.70
2013,04,25,10,26,14.60
2013,04,25,10,27,14.60
2013,04,25,10,28,14.50
2013,04,25,10,29,14.50
2013,04,25,10,30,14.50
2013,04,25,10,31,14.40
2013,04,25,10,32,14.30
2013,04,25,10,33,14.30
2013,04,25,10,34,14.20
2013,04,25,10,35,14.20
2013,04,25,10,36,14.20
2013,04,25,10,37,14.30
2013,04,25,10,38,14.20
2013,04,25,10,39,14.20
2013,04,25,10,40,14.10
2013,04,25,10,41,14.10
2013,04,25,10,42,14.10
2013,04,25,10,43,14.10
2013,04,25,10,44,14.20
2013,04,25,10,45,14.20
2013,04,25,10,46,14.20
2013,04,25,10,47,14.20
2013,04,25,10,48,14.20
2013,04,25,10,49,14.20
2013,04,25,10,50,14.20
2013,04,25,10,51,14.10
2013,04,25,10,52,14.00
2013,04,25,10,53,13.90
2013,04,25,10,54,13.80
2013,04,25,10,55,13.80
2013,04,25,10,56,13.90
2013,04,25,10,57,13.90
2013,04,25,10,58,13.90
2013,04,25,10,59,14.00
2013,04,25,11,00,14.10
2013,04,25,11,01,14.20
2013,04,25,11,02,14.20
2013,04,25,11,03,14.30
2013,04,25,11,04,14.30
2013,04,25,11,05,14.30
2013,04,25,11,06,14.30
2013,04,25,11,07,14.40
2013,04,25,11,08,14.50
2013,04,25,11,09,14.50
2013,04,25,11,10,14.60
2013,04,25,11,11,14.70
2013,04,25,11,12,14.70
2013,04,25,11,13,14.80
2013,04,25,11,14,14.90
2013,04,25,11,15,14.90
2013,04,25,11,16,15.00
2013,04,25,11,17,15.00
2013,04,25,11,18,15.00
2013,04,25,11,19,15.10
2013,04,25,11,20,15.30
2013,04,25,11,21,15.30
2013,04,25,11,22,15.30
2013,04,25,11,23,15.30
2013,04,25,11,24,15.30
2013,04,25,11,25,15.10
2013,04,25,11,26,15.00
2013,04,25,11,27,15.10
2013,04,25,11,28,15.10
2013,04,25,11,29,15.20
2013,04,25,11,30,15.10
2013,04,25,11,31,15.00
2013,04,25,11,32,15.00
2013,04,25,11,33,15.00
2013,04,25,11,34,15.00
2013,04,25,11,35,15.00
2013,04,25,11,36,15.00
2013,04,25,11,37,15.00
2013,04,25,11,38,15.00
2013,04,25,11,39,15.10
2013,04,25,11,40,15.20
2013,04,25,11,41,15.30
2013,04,25,11,42,15.30
2013,04,25,11,43,15.40
2013,04,25,11,44,15.40
2013,04,25,11,45,15.40
2013,04,25,11,46,15.40
2013,04,25,11,47,15.40
2013,04,25,11,48,15.50
2013,04,25,11,49,15.60
2013,04,25,11,50,15.60
2013,04,25,11,51,15.60
2013,04,25,11,52,15.50
2013,04,25,11,53,15.50
2013,04,25,11,54,15.50
2013,04,25,11,55,15.60
2013,04,25,11,56,15.60
2013,04,25,11,57,15.60
2013,04,25,11,58,15.50
2013,04,25,11,59,15.50
2013,04,25,12,00,15.40
2013,04,25,12,01,15.40
2013,04,25,12,02,15.40
2013,04,25,12,03,15.40
2013,04,25,12,04,15.50
2013,04,25,12,05,15.50
2013,04,25,12,06,15.60
2013,04,25,12,07,15.60
2013,04,25,12,08,15.50
2013,04,25,12,09,15.50
2013,04,25,12,10,15.50
2013,04,25,12,11,15.50
2013,04,25,12,12,15.50
2013,04,25,12,13,15.40
2013,04,25,12,14,15.40
2013,04,25,12,15,15.30
2013,04,25,12,16,15.20
2013,04,25,12,17,15.20
2013,04,25,12,18,15.20
2013,04,25,12,19,15.20
2013,04,25,12,20,15.20
2013,04,25,12,21,15.30
2013,04,25,12,22,15.30
2013,04,25,12,23,15.30
2013,04,25,12,24,15.30
2013,04,25,12,25,15.30
2013,04,25,12,26,15.30
2013,04,25,12,27,15.30
2013,04,25,12,28,15.30
2013,04,25,12,29,15.30
2013,04,25,12,30,15.40
2013,04,25,12,31,15.40
2013,04,25,12,32,15.50
2013,04,25,12,33,15.50
2013,04,25,12,34,15.60
2013,04,25,12,35,15.60
2013,04,25,12,36,15.60
2013,04,25,12,37,15.60
2013,04,25,12,38,15.60
2013,04,25,12,39,15.60
2013,04,25,12,40,15.60
2013,04,25,12,41,15.60
2013,04,25,12,42,15.60
2013,04,25,12,43,15.60
2013,04,25,12,44,15.70
2013,04,25,12,45,15.80
2013,04,25,12,46,15.90
2013,04,25,12,47,16.00
2013,04,25,12,48,16.10
2013,04,25,12,49,16.10
2013,04,25,12,50,16.00
2013,04,25,12,51,16.00
2013,04,25,12,52,16.00
2013,04,25,12,53,16.00
2013,04,25,12,54,16.10
2013,04,25,12,55,16.10
2013,04,25,12,56,16.20
2013,04,25,12,57,16.20
2013,04,25,12,58,16.20
2013,04,25,12,59,16.10
2013,04,25,13,00,16.00
2013,04,25,13,01,15.90
2013,04,25,13,02,15.90
2013,04,25,13,03,15.90
2013,04,25,13,04,16.00
2013,04,25,13,05,16.00
2013,04,25,13,06,16.10
2013,04,25,13,07,16.00
2013,04,25,13,08,16.00
2013,04,25,13,09,16.00
2013,04,25,13,10,16.00
2013,04,25,13,11,15.90
2013,04,25,13,12,15.90
2013,04,25,13,13,15.90
2013,04,25,13,14,15.80
2013,04,25,13,15,15.90
2013,04,25,13,16,15.90
2013,04,25,13,17,16.00
2013,04,25,13,18,16.10
2013,04,25,13,19,16.10
2013,04,25,13,20,16.00
2013,04,25,13,21,16.00
2013,04,25,13,22,15.90
2013,04,25,13,23,15.90
2013,04,25,13,24,15.90
2013,04,25,13,25,16.00
2013,04,25,13,26,16.00
2013,04,25,13,27,16.10
2013,04,25,13,28,16.10
2013,04,25,13,29,16.00
2013,04,25,13,30,15.90
2013,04,25,13,31,15.90
2013,04,25,13,32,16.00
2013,04,25,13,33,16.10
2013,04,25,13,34,16.20
2013,04,25,13,35,16.30
2013,04,25,13,36,16.40
2013,04,25,13,37,16.40
2013,04,25,13,38,16.40
2013,04,25,13,39,16.40
2013,04,25,13,40,16.40
2013,04,25,13,41,16.50
2013,04,25,13,42,16.50
2013,04,25,13,43,16.50
2013,04,25,13,44,16.40
2013,04,25,13,45,16.40
2013,04,25,13,46,16.50
2013,04,25,13,47,16.50
2013,04,25,13,48,16.50
2013,04,25,13,49,16.60
2013,04,25,13,50,16.60
2013,04,25,13,51,16.60
2013,04,25,13,52,16.60
2013,04,25,13,53,16.60
2013,04,25,13,54,16.60
2013,04,25,13,55,16.60
2013,04,25,13,56,16.60
2013,04,25,13,57,16.60
2013,04,25,13,58,16.60
2013,04,25,13,59,16.60
2013,04,25,14,00,16.60
2013,04,25,14,01,16.60
2013,04,25,14,02,16.50
2013,04,25,14,03,16.50
2013,04,25,14,04,16.60
2013,04,25,14,05,16.60
2013,04,25,14,06,16.50
2013,04,25,14,07,16.50
2013,04,25,14,08,16.50
2013,04,25,14,09,16.50
2013,04,25,14,10,16.40
2013,04,25,14,11,16.50
2013,04,25,14,12,16.60
2013,04,25,14,13,16.60
2013,04,25,14,14,16.70
2013,04,25,14,15,16.70
2013,04,25,14,16,16.70
2013,04,25,14,17,16.70
2013,04,25,14,18,16.80
2013,04,25,14,19,16.80
2013,04,25,14,20,16.70
2013,04,25,14,21,16.70
2013,04,25,14,22,16.60
2013,04,25,14,23,16.50
2013,04,25,14,24,16.40
2013,04,25,14,25,16.40
2013,04,25,14,26,16.30
2013,04,25,14,27,16.30
2013,04,25,14,28,16.50
2013,04,25,14,29,16.60
2013,04,25,14,30,16.70
2013,04,25,14,31,16.70
2013,04,25,14,32,16.70
2013,04,25,14,33,16.80
2013,04,25,14,34,16.80
2013,04,25,14,35,16.90
2013,04,25,14,36,16.80
2013,04,25,14,37,16.80
2013,04,25,14,38,16.80
2013,04,25,14,39,16.80
2013,04,25,14,40,16.70
2013,04,25,14,41,16.70
2013,04,25,14,42,16.70
2013,04,25,14,43,16.80
2013,04,25,14,44,16.90
2013,04,25,14,45,16.90
2013,04,25,14,46,17.00
2013,04,25,14,47,17.10
2013,04,25,14,48,17.20
2013,04,25,14,49,17.30
2013,04,25,14,50,17.30
2013,04,25,14,51,17.40
2013,04,25,14,52,17.50
2013,04,25,14,53,17.60
2013,04,25,14,54,17.60
2013,04,25,14,55,17.70
2013,04,25,14,56,17.70
2013,04,25,14,57,17.60
2013,04,25,14,58,17.60
2013,04,25,14,59,17.60
2013,04,25,15,00,17.60
2013,04,25,15,01,17.60
2013,04,25,15,02,17.60
2013,04,25,15,03,17.60
2013,04,25,15,04,17.60
2013,04,25,15,05,17.50
2013,04,25,15,06,17.50
2013,04,25,15,07,17.40
2013,04,25,15,08,17.40
2013,04,25,15,09,17.30
2013,04,25,15,10,17.20
2013,04,25,15,11,17.20
2013,04,25,15,12,17.20
2013,04,25,15,13,17.30
2013,04,25,15,14,17.30
2013,04,25,15,15,17.30
2013,04,25,15,16,17.30
2013,04,25,15,17,17.30
2013,04,25,15,18,17.30
2013,04,25,15,19,17.30
2013,04,25,15,20,17.30
2013,04,25,15,21,17.30
2013,04,25,15,22,17.40
2013,04,25,15,23,17.40
2013,04,25,15,24,17.50
2013,04,25,15,25,17.50
2013,04,25,15,26,17.50
2013,04,25,15,27,17.50
2013,04,25,15,28,17.60
2013,04,25,15,29,17.60
2013,04,25,15,30,17.50
2013,04,25,15,31,17.40
2013,04,25,15,32,17.40
2013,04,25,15,33,17.40
2013,04,25,15,34,17.40
2013,04,25,15,35,17.40
2013,04,25,15,36,17.40
2013,04,25,15,37,17.40
2013,04,25,15,38,17.40
2013,04,25,15,39,17.40
2013,04,25,15,40,17.40
2013,04,25,15,41,17.50
2013,04,25,15,42,17.60
2013,04,25,15,43,17.50
2013,04,25,15,44,17.50
2013,04,25,15,45,17.30
2013,04,25,15,46,17.20
2013,04,25,15,47,17.10
2013,04,25,15,48,17.00
2013,04,25,15,49,16.90
2013,04,25,15,50,16.90
2013,04,25,15,51,16.80
2013,04,25,15,52,16.80
2013,04,25,15,53,16.80
2013,04,25,15,54,16.80
2013,04,25,15,55,16.70
2013,04,25,15,56,16.80
2013,04,25,15,57,16.80
2013,04,25,15,58,16.90
2013,04,25,15,59,17.00
2013,04,25,16,00,17.10
2013,04,25,16,01,17.20
2013,04,25,16,02,17.30
2013,04,25,16,03,17.30
2013,04,25,16,04,17.40
2013,04,25,16,05,17.40
2013,04,25,16,06,17.40
2013,04,25,16,07,17.40
2013,04,25,16,08,17.40
2013,04,25,16,09,17.40
2013,04,25,16,10,17.40
2013,04,25,16,11,17.40
2013,04,25,16,12,17.40
2013,04,25,16,13,17.40
2013,04,25,16,14,17.40
2013,04,25,16,15,17.40
2013,04,25,16,16,17.40
2013,04,25,16,17,17.40
2013,04,25,16,18,17.40
2013,04,25,16,19,17.40
2013,04,25,16,20,17.40
2013,04,25,16,21,17.40
2013,04,25,16,22,17.30
2013,04,25,16,23,17.20
2013,04,25,16,24,17.00
2013,04,25,16,25,16.90
2013,04,25,16,26,16.80
2013,04,25,16,27,16.70
2013,04,25,16,28,16.60
2013,04,25,16,29,16.60
2013,04,25,16,30,16.60
2013,04,25,16,31,16.60
2013,04,25,16,32,16.60
2013,04,25,16,33,16.60
2013,04,25,16,34,16.50
2013,04,25,16,35,16.40
2013,04,25,16,36,16.40
2013,04,25,16,37,16.30
2013,04,25,16,38,16.30
2013,04,25,16,39,16.40
2013,04,25,16,40,16.40
2013,04,25,16,41,16.40
2013,04,25,16,42,16.40
2013,04,25,16,43,16.40
2013,04,25,16,44,16.50
2013,04,25,16,45,16.50
2013,04,25,16,46,16.50
2013,04,25,16,47,16.60
2013,04,25,16,48,16.60
2013,04,25,16,49,16.60
2013,04,25,16,50,16.60
2013,04,25,16,51,16.60
2013,04,25,16,52,16.60
2013,04,25,16,53,16.70
2013,04,25,16,54,16.70
2013,04,25,16,55,16.70
2013,04,25,16,56,16.70
2013,04,25,16,57,16.70
2013,04,25,16,58,16.70
2013,04,25,16,59,16.70
2013,04,25,17,00,16.70
2013,04,25,17,01,16.60
2013,04,25,17,02,16.60
2013,04,25,17,03,16.60
2013,04,25,17,04,16.60
2013,04,25,17,05,16.60
2013,04,25,17,06,16.60
2013,04,25,17,07,16.60
2013,04,25,17,08,16.60
2013,04,25,17,09,16.60
2013,04,25,17,10,16.60
2013,04,25,17,11,16.60
2013,04,25,17,12,16.60
2013,04,25,17,13,16.60
2013,04,25,17,14,16.60
2013,04,25,17,15,16.60
2013,04,25,17,16,16.60
2013,04,25,17,17,16.60
2013,04,25,17,18,16.60
2013,04,25,17,19,16.60
2013,04,25,17,20,16.60
2013,04,25,17,21,16.60
2013,04,25,17,22,16.60
2013,04,25,17,23,16.60
2013,04,25,17,24,16.70
2013,04,25,17,25,16.70
2013,04,25,17,26,16.70
2013,04,25,17,27,16.70
2013,04,25,17,28,16.70
2013,04,25,17,29,16.70
2013,04,25,17,30,16.70
2013,04,25,17,31,16.70
2013,04,25,17,32,16.70
2013,04,25,17,33,16.70
2013,04,25,17,34,16.70
2013,04,25,17,35,16.60
2013,04,25,17,36,16.60
2013,04,25,17,37,16.50
2013,04,25,17,38,16.50
2013,04,25,17,39,16.40
2013,04,25,17,40,16.40
2013,04,25,17,41,16.50
2013,04,25,17,42,16.50
2013,04,25,17,43,16.50